Tracking 19644 objects as of 25-Apr-2019
HD Live streaming from Space Station
objects crossing your sky now

SL-24 DEB

Track SL-24 DEB now!
10-day predictions


NORAD ID: 31791
Int'l Code: 2007-028C
Perigee: 521.3 km
Apogee: 1,823.2 km
Inclination: 64.5 °
Period: 108.7 minutes
Semi major axis: 7543 km
RCS: 5.811 m2 (large)
Launch date: June 28, 2007
Source: Commonwealth of Independent States (former USSR) (CIS)
Launch site: Orenburg, Russia (OREN)

Note: This is SATELLITE DEBRIS
aabbcc
Your satellite tracking list
Your tracking list is empty




NASA's NSSDC Master Catalog

Two Line Element Set (TLE):
1 31791U 07028C   19115.12423819 -.00000054  00000-0  16812-4 0  9997
2 31791  64.5228 183.6965 0862919 275.9162  83.4902 13.25145936572071
Source of the keplerian elements: AFSPC